contact:dominique.lefevre@mio.osupytheas.fr, maurice.libes@osupytheas.fr, didier.mallarino@osupytheas.fr
Project:EMSO http://www.emso-fr.org/EMSO-France
Depth: 2436.0 m
Title:EMSO Ligure Ouest : Data MII capteur AQUADOPP
Date,Latitude,Longitude,X_East,Y_North,Z_Up,Amplitude_X,Amplitude_Y,Amplitude_Z,Batterie,SoundSpeed,Heading,Pitch,Roll,Pressure,TIS,Speed,Direction
, degrees North, degrees East, m.s-1, m.s-1,m.s-1, 1, 1, 1, Volt, m.s-1, degree, degree, degree, dbar, degree_C, m.s-1, degree
2022-12-03T00:04:03,42.805,6.029,-0.028,-0.015,-0.053,103.0,103.0,102.0,13.3,1505.2,328.4,-0.7,1.8,2471.179,13.28,0.031,241.8
2022-12-03T00:07:03,42.805,6.029,-0.039,-0.017,-0.055,104.0,104.0,102.0,13.4,1505.2,329.2,-0.8,1.8,2471.174,13.28,0.042,246.5
2022-12-03T00:10:03,42.805,6.029,-0.01,-0.037,-0.04,104.0,104.0,102.0,13.3,1505.2,321.8,-0.8,1.8,2471.152,13.28,0.038,195.1
2022-12-03T00:13:03,42.805,6.029,-0.013,-0.014,-0.052,105.0,103.0,102.0,13.3,1505.2,334.8,-0.8,1.8,2471.158,13.29,0.019,222.9
2022-12-03T00:16:03,42.805,6.029,-0.021,-0.019,-0.023,104.0,105.0,102.0,13.3,1505.2,323.2,-0.8,1.8,2471.18,13.29,0.028,227.9
2022-12-03T00:19:03,42.805,6.029,-0.038,-0.012,-0.046,104.0,103.0,103.0,13.3,1505.2,331.1,-0.7,1.8,2471.115,13.29,0.039,252.5
2022-12-03T00:22:03,42.805,6.029,-0.025,-0.003,-0.03,104.0,104.0,102.0,13.4,1505.2,334.8,-0.8,1.8,2471.161,13.29,0.025,263.2
2022-12-03T00:25:03,42.805,6.029,-0.029,-0.018,-0.073,103.0,103.0,102.0,13.3,1505.2,333.7,-0.7,1.9,2471.136,13.29,0.034,238.2
2022-12-03T00:28:03,42.805,6.029,-0.035,-0.041,-0.048,104.0,104.0,102.0,13.3,1505.2,320.4,-0.8,1.8,2471.157,13.29,0.053,220.5
2022-12-03T00:31:03,42.805,6.029,-0.057,-0.025,-0.063,105.0,104.0,102.0,13.4,1505.2,331.0,-0.8,1.8,2471.162,13.29,0.062,246.3
2022-12-03T00:34:03,42.805,6.029,-0.007,-0.025,-0.031,104.0,104.0,102.0,13.3,1505.2,315.9,-0.7,1.8,2471.145,13.29,0.025,195.6
2022-12-03T00:37:03,42.805,6.029,-0.029,-0.047,-0.058,104.0,103.0,102.0,13.3,1505.2,328.0,-0.8,1.8,2471.13,13.29,0.055,211.7
2022-12-03T00:40:03,42.805,6.029,-0.017,-0.052,-0.036,104.0,103.0,102.0,13.4,1505.2,322.5,-0.8,1.8,2471.183,13.29,0.054,198.1
2022-12-03T00:43:03,42.805,6.029,-0.01,-0.039,-0.066,104.0,104.0,102.0,13.4,1505.2,323.1,-0.8,1.8,2471.14,13.29,0.04,194.4
2022-12-03T00:46:03,42.805,6.029,-0.026,-0.032,-0.038,104.0,104.0,103.0,13.4,1505.2,323.7,-0.8,1.8,2471.125,13.29,0.041,219.1
2022-12-03T00:49:03,42.805,6.029,-0.019,-0.024,-0.041,104.0,104.0,103.0,13.4,1505.2,322.2,-0.8,1.8,2471.18,13.29,0.03,218.4
2022-12-03T00:52:03,42.805,6.029,-0.018,-0.013,-0.024,105.0,104.0,102.0,13.3,1505.2,323.7,-0.7,1.8,2471.184,13.29,0.022,234.2
2022-12-03T00:55:03,42.805,6.029,-0.047,-0.003,-0.029,104.0,104.0,103.0,13.4,1505.2,328.7,-0.7,1.8,2471.178,13.29,0.047,266.4
2022-12-03T00:58:03,42.805,6.029,-0.024,-0.032,-0.042,104.0,103.0,103.0,13.4,1505.2,324.3,-0.8,1.8,2471.173,13.29,0.04,216.9
2022-12-03T01:04:03,42.805,6.029,-0.034,-0.027,-0.038,106.0,104.0,103.0,13.4,1505.2,322.4,-0.8,1.8,2471.171,13.28,0.043,231.5
2022-12-03T01:07:03,42.805,6.029,-0.041,-0.01,-0.081,105.0,104.0,102.0,13.4,1505.2,319.8,-0.8,1.8,2471.195,13.28,0.042,256.3
2022-12-03T01:10:03,42.805,6.029,-0.025,-0.004,-0.023,104.0,104.0,102.0,13.4,1505.2,333.0,-0.8,1.8,2471.152,13.28,0.025,260.9
2022-12-03T01:13:03,42.805,6.029,-0.015,-0.051,-0.061,105.0,104.0,103.0,13.4,1505.2,321.4,-0.8,1.9,2471.176,13.28,0.053,196.4
2022-12-03T01:16:03,42.805,6.029,-0.035,-0.033,-0.044,105.0,104.0,103.0,13.4,1505.2,316.4,-0.7,1.8,2471.18,13.29,0.048,226.7
2022-12-03T01:19:03,42.805,6.029,-0.014,-0.026,-0.041,104.0,103.0,102.0,13.4,1505.2,321.4,-0.8,1.8,2471.173,13.29,0.029,208.3
2022-12-03T01:22:03,42.805,6.029,-0.01,-0.038,-0.048,104.0,105.0,103.0,13.4,1505.2,323.5,-0.8,1.8,2471.165,13.29,0.039,194.7
2022-12-03T01:25:03,42.805,6.029,-0.037,-0.031,-0.029,104.0,103.0,102.0,13.4,1505.2,319.6,-0.7,1.8,2471.187,13.29,0.048,230.0
2022-12-03T01:28:03,42.805,6.029,-0.021,-0.037,-0.027,104.0,103.0,103.0,13.3,1505.2,323.4,-0.7,1.8,2471.174,13.29,0.042,209.6
2022-12-03T01:31:03,42.805,6.029,-0.025,-0.032,-0.028,105.0,103.0,102.0,13.4,1505.2,327.4,-0.8,1.8,2471.168,13.29,0.04,218.0
2022-12-03T01:34:03,42.805,6.029,-0.051,-0.038,-0.044,105.0,104.0,102.0,13.3,1505.2,318.6,-0.8,1.8,2471.162,13.29,0.063,233.3
2022-12-03T01:37:03,42.805,6.029,-0.035,-0.043,-0.045,105.0,103.0,101.0,13.4,1505.2,323.4,-0.8,1.8,2471.163,13.29,0.055,219.1
2022-12-03T01:40:03,42.805,6.029,-0.036,-0.031,-0.049,104.0,104.0,103.0,13.4,1505.2,319.7,-0.8,1.8,2471.192,13.29,0.047,229.3
2022-12-03T01:43:03,42.805,6.029,-0.031,-0.02,-0.053,105.0,104.0,103.0,13.3,1505.2,322.6,-0.8,1.8,2471.204,13.29,0.036,237.2
2022-12-03T01:46:03,42.805,6.029,-0.053,-0.025,-0.057,105.0,103.0,102.0,13.4,1505.2,324.1,-0.8,1.8,2471.179,13.29,0.058,244.7
2022-12-03T01:49:03,42.805,6.029,-0.057,-0.035,-0.041,105.0,104.0,102.0,13.3,1505.2,322.8,-0.8,1.8,2471.199,13.29,0.066,238.4
2022-12-03T01:52:03,42.805,6.029,-0.034,-0.03,-0.037,104.0,104.0,102.0,13.4,1505.2,322.9,-0.8,1.8,2471.2,13.29,0.045,228.6
2022-12-03T01:55:03,42.805,6.029,-0.044,-0.032,-0.06,105.0,103.0,103.0,13.4,1505.2,320.7,-0.8,1.8,2471.198,13.29,0.054,234.0
2022-12-03T01:58:03,42.805,6.029,-0.029,-0.03,-0.037,104.0,104.0,103.0,13.4,1505.2,324.1,-0.7,1.8,2471.169,13.29,0.041,224.0
2022-12-03T02:04:03,42.805,6.029,-0.051,-0.028,-0.028,104.0,104.0,102.0,13.4,1505.2,327.5,-0.7,1.8,2471.237,13.28,0.058,241.2
2022-12-03T02:07:03,42.805,6.029,-0.046,-0.038,-0.049,105.0,104.0,102.0,13.4,1505.2,319.4,-0.8,1.8,2471.212,13.28,0.059,230.4
2022-12-03T02:10:03,42.805,6.029,-0.032,-0.018,-0.026,106.0,104.0,101.0,13.4,1505.2,332.4,-0.7,1.8,2471.178,13.28,0.036,240.6
2022-12-03T02:13:03,42.805,6.029,-0.039,-0.044,-0.098,103.0,103.0,103.0,13.3,1505.2,328.7,-0.7,1.8,2471.212,13.29,0.058,221.6
2022-12-03T02:16:03,42.805,6.029,-0.027,-0.035,-0.045,105.0,104.0,102.0,13.4,1505.2,330.2,-0.8,1.8,2471.208,13.29,0.044,217.7
2022-12-03T02:19:03,42.805,6.029,-0.037,-0.027,-0.02,102.0,104.0,103.0,13.4,1505.2,316.9,-0.7,1.9,2471.201,13.29,0.045,233.9
2022-12-03T02:22:03,42.805,6.029,-0.033,-0.028,-0.062,105.0,104.0,102.0,13.4,1505.2,325.8,-0.8,1.8,2471.199,13.29,0.043,229.7
2022-12-03T02:25:03,42.805,6.029,-0.021,-0.021,-0.015,104.0,103.0,102.0,13.4,1505.2,322.8,-0.7,1.8,2471.236,13.29,0.029,225.0
2022-12-03T02:28:03,42.805,6.029,-0.028,-0.009,-0.051,104.0,103.0,103.0,13.4,1505.2,323.8,-0.7,1.8,2471.183,13.29,0.029,252.2
2022-12-03T02:31:03,42.805,6.029,-0.029,-0.014,-0.016,104.0,103.0,102.0,13.3,1505.2,324.9,-0.7,1.8,2471.201,13.29,0.032,244.2
2022-12-03T02:34:03,42.805,6.029,-0.044,-0.015,-0.028,105.0,103.0,103.0,13.4,1505.2,329.6,-0.8,1.8,2471.169,13.29,0.046,251.2
2022-12-03T02:37:03,42.805,6.029,-0.023,-0.023,-0.041,104.0,104.0,102.0,13.4,1505.2,330.5,-0.8,1.8,2471.202,13.29,0.032,225.0
2022-12-03T02:40:03,42.805,6.029,-0.038,-0.026,-0.057,104.0,103.0,103.0,13.4,1505.2,328.3,-0.8,1.8,2471.17,13.29,0.046,235.6
2022-12-03T02:43:03,42.805,6.029,-0.04,-0.011,-0.048,104.0,104.0,102.0,13.4,1505.2,330.4,-0.7,1.8,2471.197,13.29,0.041,254.6
2022-12-03T02:46:03,42.805,6.029,-0.052,-0.023,-0.036,104.0,103.0,102.0,13.3,1505.2,322.3,-0.8,1.8,2471.223,13.29,0.056,246.1
2022-12-03T02:49:03,42.805,6.029,-0.035,-0.032,-0.045,105.0,104.0,101.0,13.4,1505.2,318.1,-0.8,1.8,2471.231,13.29,0.047,227.6
2022-12-03T02:52:03,42.805,6.029,-0.03,-0.019,-0.037,104.0,103.0,103.0,13.4,1505.2,319.1,-0.8,1.8,2471.208,13.29,0.035,237.7
2022-12-03T02:55:03,42.805,6.029,-0.029,-0.013,-0.037,105.0,104.0,102.0,13.3,1505.2,330.5,-0.8,1.8,2471.175,13.29,0.031,245.9
2022-12-03T02:58:03,42.805,6.029,-0.029,-0.023,-0.037,105.0,104.0,102.0,13.4,1505.2,328.3,-0.8,1.8,2471.18,13.29,0.037,231.6
2022-12-03T03:04:03,42.805,6.029,-0.03,-0.023,-0.006,104.0,103.0,102.0,13.4,1505.2,327.6,-0.8,1.8,2471.244,13.28,0.037,232.5
2022-12-03T03:07:03,42.805,6.029,-0.042,-0.023,-0.026,104.0,103.0,102.0,13.4,1505.2,332.6,-0.8,1.8,2471.252,13.28,0.047,241.3
2022-12-03T03:10:03,42.805,6.029,-0.05,-0.027,-0.047,104.0,104.0,103.0,13.4,1505.2,330.9,-0.8,1.8,2471.243,13.28,0.056,241.6
2022-12-03T03:13:03,42.805,6.029,-0.048,-0.027,-0.066,105.0,103.0,102.0,13.4,1505.2,333.4,-0.8,1.8,2471.251,13.28,0.055,240.6
2022-12-03T03:16:03,42.805,6.029,-0.049,-0.043,-0.062,105.0,103.0,103.0,13.4,1505.2,320.4,-0.8,1.8,2471.231,13.29,0.065,228.7
2022-12-03T03:19:03,42.805,6.029,-0.039,-0.051,-0.066,104.0,104.0,103.0,13.4,1505.2,317.3,-0.7,1.8,2471.193,13.29,0.064,217.4
2022-12-03T03:22:03,42.805,6.029,-0.035,-0.029,-0.052,103.0,104.0,101.0,13.4,1505.2,323.4,-0.7,1.8,2471.198,13.29,0.045,230.4
2022-12-03T03:25:03,42.805,6.029,-0.049,-0.025,-0.056,103.0,104.0,102.0,13.3,1505.2,336.2,-0.7,1.8,2471.207,13.29,0.055,243.0
2022-12-03T03:28:03,42.805,6.029,-0.035,-0.037,-0.037,104.0,103.0,102.0,13.4,1505.2,323.5,-0.8,1.8,2471.22,13.29,0.05,223.4
2022-12-03T03:31:03,42.805,6.029,-0.038,-0.029,-0.028,104.0,104.0,102.0,13.4,1505.2,322.3,-0.8,1.8,2471.178,13.29,0.047,232.7
2022-12-03T03:34:03,42.805,6.029,-0.029,-0.025,-0.048,104.0,103.0,103.0,13.4,1505.2,324.6,-0.8,1.8,2471.199,13.29,0.038,229.2
2022-12-03T03:37:03,42.805,6.029,-0.033,-0.041,-0.079,104.0,103.0,102.0,13.3,1505.2,321.1,-0.8,1.8,2471.205,13.29,0.052,218.8
2022-12-03T03:40:03,42.805,6.029,-0.031,-0.036,-0.036,104.0,102.0,103.0,13.3,1505.2,319.3,-0.8,1.8,2471.186,13.29,0.047,220.7
2022-12-03T03:43:03,42.805,6.029,-0.062,-0.02,-0.024,104.0,104.0,103.0,13.4,1505.2,325.3,-0.8,1.8,2471.195,13.29,0.065,252.1
2022-12-03T03:46:03,42.805,6.029,-0.028,-0.024,-0.009,105.0,104.0,102.0,13.3,1505.2,319.6,-0.8,1.8,2471.197,13.29,0.036,229.4
2022-12-03T03:49:03,42.805,6.029,-0.041,-0.019,-0.035,104.0,103.0,102.0,13.4,1505.2,324.9,-0.7,1.8,2471.225,13.29,0.045,245.1
2022-12-03T03:52:03,42.805,6.029,-0.031,-0.002,-0.031,105.0,104.0,102.0,13.3,1505.2,324.8,-0.8,1.9,2471.195,13.29,0.031,266.3
2022-12-03T03:55:03,42.805,6.029,-0.04,-0.032,-0.033,104.0,105.0,102.0,13.3,1505.2,315.9,-0.8,1.8,2471.24,13.29,0.051,231.3
2022-12-03T03:58:03,42.805,6.029,-0.044,-0.032,-0.063,105.0,103.0,102.0,13.3,1505.2,328.8,-0.8,1.8,2471.202,13.29,0.054,234.0
2022-12-03T04:04:03,42.805,6.029,-0.051,-0.025,-0.03,105.0,104.0,102.0,13.4,1505.2,330.5,-0.8,1.8,2471.256,13.28,0.056,243.9
2022-12-03T04:07:03,42.805,6.029,-0.023,-0.008,-0.036,105.0,104.0,103.0,13.3,1505.2,329.8,-0.8,1.8,2471.232,13.28,0.024,250.8
2022-12-03T04:10:03,42.805,6.029,-0.034,-0.015,-0.041,104.0,104.0,103.0,13.4,1505.2,331.1,-0.7,1.8,2471.208,13.28,0.037,246.2
2022-12-03T04:13:03,42.805,6.029,-0.028,-0.044,-0.008,105.0,103.0,102.0,13.4,1505.2,319.9,-0.7,1.8,2471.257,13.28,0.052,212.5
2022-12-03T04:16:03,42.805,6.029,-0.047,-0.002,-0.021,104.0,104.0,102.0,13.4,1505.2,322.4,-0.8,1.8,2471.234,13.28,0.047,267.6
2022-12-03T04:19:04,42.805,6.029,-0.061,-0.016,-0.028,104.0,104.0,102.0,13.4,1505.2,326.1,-0.8,1.8,2471.201,13.29,0.063,255.3
2022-12-03T04:22:03,42.805,6.029,-0.061,-0.018,-0.012,104.0,104.0,102.0,13.4,1505.2,320.5,-0.8,1.8,2471.262,13.29,0.063,253.6
2022-12-03T04:25:03,42.805,6.029,-0.029,-0.013,-0.038,104.0,105.0,102.0,13.4,1505.2,328.3,-0.7,1.8,2471.246,13.29,0.031,245.9
2022-12-03T04:28:03,42.805,6.029,-0.049,-0.037,-0.062,105.0,103.0,102.0,13.3,1505.2,322.4,-0.8,1.8,2471.233,13.29,0.061,232.9
2022-12-03T04:31:03,42.805,6.029,-0.027,-0.042,-0.076,105.0,104.0,102.0,13.4,1505.2,315.4,-0.8,1.8,2471.192,13.29,0.049,212.7
2022-12-03T04:34:04,42.805,6.029,-0.051,-0.004,-0.031,103.0,104.0,102.0,13.4,1505.2,329.8,-0.7,1.8,2471.196,13.29,0.051,265.5
2022-12-03T04:37:03,42.805,6.029,-0.054,-0.008,-0.051,105.0,103.0,102.0,13.4,1505.2,334.4,-0.7,1.8,2471.213,13.29,0.054,261.6
2022-12-03T04:40:03,42.805,6.029,-0.051,-0.029,-0.02,103.0,104.0,103.0,13.4,1505.2,326.5,-0.8,1.8,2471.168,13.29,0.058,240.4
2022-12-03T04:43:03,42.805,6.029,-0.029,-0.021,-0.066,104.0,104.0,102.0,13.4,1505.2,323.8,-0.8,1.8,2471.229,13.29,0.035,234.1
2022-12-03T04:46:03,42.805,6.029,-0.03,-0.015,-0.038,104.0,104.0,102.0,13.3,1505.2,332.3,-0.8,1.8,2471.199,13.29,0.033,243.4
2022-12-03T04:49:03,42.805,6.029,-0.04,-0.009,-0.005,105.0,103.0,102.0,13.4,1505.2,326.7,-0.8,1.8,2471.195,13.29,0.041,257.3
2022-12-03T04:52:03,42.805,6.029,-0.074,-0.036,-0.075,105.0,102.0,102.0,13.4,1505.2,330.2,-0.8,1.8,2471.209,13.29,0.082,244.1
2022-12-03T04:55:03,42.805,6.029,-0.059,-0.018,-0.066,104.0,104.0,101.0,13.3,1505.2,323.2,-0.8,1.8,2471.205,13.29,0.061,253.0
2022-12-03T04:58:03,42.805,6.029,-0.024,-0.016,-0.017,104.0,104.0,103.0,13.3,1505.2,317.9,-0.7,1.8,2471.225,13.29,0.028,236.3
2022-12-03T05:04:03,42.805,6.029,-0.047,-0.004,-0.045,104.0,104.0,102.0,13.4,1505.2,322.8,-0.8,1.8,2471.258,13.28,0.047,265.1
2022-12-03T05:07:03,42.805,6.029,-0.044,-0.043,-0.044,105.0,104.0,102.0,13.4,1505.2,325.0,-0.8,1.8,2471.229,13.28,0.061,225.7
2022-12-03T05:10:03,42.805,6.029,-0.029,-0.014,-0.003,104.0,104.0,103.0,13.3,1505.2,323.2,-0.8,1.8,2471.221,13.28,0.032,244.2
2022-12-03T05:13:03,42.805,6.029,-0.04,-0.019,-0.051,105.0,104.0,102.0,13.4,1505.2,331.9,-0.8,1.9,2471.241,13.28,0.044,244.6
2022-12-03T05:16:03,42.805,6.029,-0.067,-0.039,-0.06,104.0,104.0,102.0,13.4,1505.2,320.1,-0.8,1.8,2471.207,13.28,0.077,239.8
2022-12-03T05:19:04,42.805,6.029,-0.045,-0.023,-0.031,105.0,103.0,103.0,13.3,1505.2,321.0,-0.8,1.8,2471.222,13.29,0.05,242.9
2022-12-03T05:22:03,42.805,6.029,-0.034,-0.023,-0.021,105.0,104.0,102.0,13.3,1505.2,320.7,-0.7,1.8,2471.204,13.29,0.041,235.9
2022-12-03T05:25:03,42.805,6.029,-0.02,-0.013,-0.013,103.0,104.0,103.0,13.4,1505.2,324.0,-0.8,1.8,2471.202,13.29,0.023,237.0
2022-12-03T05:28:03,42.805,6.029,-0.054,-0.013,-0.018,105.0,105.0,101.0,13.4,1505.2,331.4,-0.8,1.8,2471.192,13.29,0.055,256.5
2022-12-03T05:31:03,42.805,6.029,-0.033,-0.023,-0.025,106.0,103.0,103.0,13.3,1505.2,334.1,-0.7,1.8,2471.203,13.29,0.04,235.1
2022-12-03T05:34:03,42.805,6.029,-0.043,-0.015,-0.044,106.0,103.0,103.0,13.4,1505.2,319.1,-0.8,1.8,2471.176,13.29,0.045,250.8
2022-12-03T05:37:03,42.805,6.029,-0.054,-0.012,-0.02,104.0,105.0,103.0,13.4,1505.2,330.6,-0.7,1.8,2471.226,13.29,0.055,257.5
2022-12-03T05:40:03,42.805,6.029,-0.049,-0.017,-0.062,105.0,103.0,102.0,13.4,1505.2,328.6,-0.8,1.8,2471.211,13.29,0.051,250.9
2022-12-03T05:43:03,42.805,6.029,-0.026,-0.001,-0.04,104.0,104.0,103.0,13.4,1505.2,333.4,-0.8,1.8,2471.187,13.29,0.026,267.8
2022-12-03T05:46:03,42.805,6.029,-0.027,-0.024,-0.026,104.0,104.0,103.0,13.4,1505.2,323.4,-0.8,1.8,2471.158,13.29,0.036,228.4
2022-12-03T05:49:03,42.805,6.029,-0.017,-0.037,-0.053,106.0,104.0,103.0,13.4,1505.2,315.9,-0.8,1.8,2471.207,13.29,0.04,204.7
2022-12-03T05:52:03,42.805,6.029,-0.042,-0.002,-0.028,104.0,104.0,104.0,13.3,1505.2,331.5,-0.8,1.8,2471.154,13.29,0.042,267.3
2022-12-03T05:55:03,42.805,6.029,-0.056,-0.029,-0.03,106.0,103.0,103.0,13.3,1505.2,336.9,-0.8,1.8,2471.157,13.29,0.063,242.6
2022-12-03T05:58:03,42.805,6.029,-0.046,-0.019,-0.04,105.0,103.0,102.0,13.4,1505.2,330.0,-0.8,1.8,2471.185,13.29,0.049,247.6
2022-12-03T06:04:03,42.805,6.029,-0.032,-0.029,-0.037,104.0,103.0,103.0,13.4,1505.2,319.1,-0.8,1.8,2471.247,13.28,0.043,227.8
2022-12-03T06:07:03,42.805,6.029,-0.028,-0.013,-0.031,105.0,104.0,102.0,13.3,1505.2,321.0,-0.8,1.8,2471.189,13.28,0.03,245.1
2022-12-03T06:10:03,42.805,6.029,-0.048,-0.005,-0.027,105.0,104.0,104.0,13.4,1505.2,335.4,-0.8,1.8,2471.229,13.28,0.048,264.1
2022-12-03T06:13:03,42.805,6.029,-0.039,-0.022,-0.02,104.0,103.0,103.0,13.3,1505.2,331.5,-0.8,1.8,2471.224,13.28,0.044,240.6
2022-12-03T06:16:03,42.805,6.029,-0.04,-0.015,-0.031,104.0,104.0,102.0,13.4,1505.2,334.4,-0.8,1.8,2471.216,13.28,0.042,249.4
2022-12-03T06:19:03,42.805,6.029,-0.053,-0.023,-0.04,104.0,104.0,103.0,13.4,1505.2,320.1,-0.7,1.8,2471.224,13.29,0.057,246.5
2022-12-03T06:22:03,42.805,6.029,-0.041,-0.038,-0.046,105.0,104.0,103.0,13.4,1505.2,315.9,-0.8,1.9,2471.192,13.29,0.055,227.2
2022-12-03T06:25:03,42.805,6.029,-0.059,-0.039,-0.047,105.0,104.0,103.0,13.4,1505.2,322.3,-0.7,1.8,2471.167,13.29,0.07,236.5
2022-12-03T06:28:03,42.805,6.029,-0.051,-0.034,-0.051,105.0,104.0,102.0,13.4,1505.2,325.7,-0.8,1.8,2471.151,13.29,0.061,236.3
2022-12-03T06:31:03,42.805,6.029,-0.036,-0.023,-0.025,105.0,104.0,103.0,13.4,1505.2,329.1,-0.7,1.8,2471.149,13.29,0.042,237.4
2022-12-03T06:34:03,42.805,6.029,-0.058,-0.019,-0.042,105.0,105.0,103.0,13.4,1505.2,335.6,-0.7,1.8,2471.2,13.29,0.061,251.9
2022-12-03T06:37:03,42.805,6.029,-0.046,-0.033,-0.046,105.0,104.0,102.0,13.4,1505.2,327.4,-0.8,1.8,2471.128,13.29,0.056,234.3
2022-12-03T06:40:03,42.805,6.029,-0.054,-0.032,-0.031,104.0,104.0,102.0,13.4,1505.2,318.2,-0.7,1.8,2471.164,13.29,0.062,239.3
2022-12-03T06:43:03,42.805,6.029,-0.044,-0.024,-0.03,106.0,105.0,103.0,13.4,1505.2,318.0,-0.8,1.9,2471.191,13.29,0.05,241.4
2022-12-03T06:46:03,42.805,6.029,-0.043,-0.024,-0.041,105.0,105.0,102.0,13.4,1505.2,321.3,-0.7,1.8,2471.18,13.29,0.049,240.8
2022-12-03T06:49:03,42.805,6.029,-0.034,-0.013,-0.024,104.0,105.0,102.0,13.4,1505.2,323.9,-0.7,1.8,2471.193,13.29,0.036,249.1
2022-12-03T06:52:03,42.805,6.029,-0.059,-0.018,-0.01,105.0,104.0,103.0,13.4,1505.2,323.7,-0.7,1.8,2471.175,13.29,0.061,253.0
2022-12-03T06:55:03,42.805,6.029,-0.027,-0.028,-0.04,104.0,104.0,103.0,13.3,1505.2,327.6,-0.7,1.8,2471.158,13.29,0.038,224.0
2022-12-03T06:58:03,42.805,6.029,-0.026,0.0,-0.021,104.0,105.0,103.0,13.4,1505.2,329.6,-0.8,1.8,2471.204,13.29,0.026,270.0
2022-12-03T07:04:03,42.805,6.029,-0.042,-0.028,-0.047,103.0,103.0,103.0,13.3,1505.2,322.8,-0.7,1.8,2471.226,13.28,0.05,236.3
2022-12-03T07:07:03,42.805,6.029,-0.027,-0.032,-0.039,104.0,103.0,103.0,13.4,1505.2,316.9,-0.7,1.8,2471.23,13.28,0.041,220.2
2022-12-03T07:10:03,42.805,6.029,-0.032,-0.033,-0.003,106.0,105.0,102.0,13.4,1505.2,325.1,-0.8,1.8,2471.185,13.28,0.045,224.1
2022-12-03T07:13:03,42.805,6.029,-0.044,-0.008,-0.033,105.0,104.0,103.0,13.4,1505.2,325.3,-0.8,1.8,2471.174,13.28,0.044,259.7
2022-12-03T07:16:03,42.805,6.029,-0.041,-0.025,-0.034,104.0,104.0,102.0,13.3,1505.2,322.5,-0.8,1.8,2471.179,13.28,0.048,238.6
2022-12-03T07:19:03,42.805,6.029,-0.035,-0.015,-0.011,105.0,104.0,102.0,13.4,1505.2,327.6,-0.8,1.8,2471.169,13.28,0.038,246.8
2022-12-03T07:22:03,42.805,6.029,-0.03,-0.04,-0.045,104.0,103.0,103.0,13.3,1505.2,318.6,-0.8,1.8,2471.179,13.29,0.05,216.9
2022-12-03T07:25:03,42.805,6.029,-0.03,-0.013,-0.039,104.0,103.0,102.0,13.4,1505.2,328.7,-0.8,1.8,2471.169,13.29,0.032,246.6
2022-12-03T07:28:03,42.805,6.029,-0.052,-0.003,-0.015,104.0,103.0,103.0,13.4,1505.2,328.5,-0.8,1.8,2471.194,13.29,0.052,266.7
2022-12-03T07:31:03,42.805,6.029,-0.034,-0.037,-0.029,103.0,104.0,102.0,13.3,1505.2,321.8,-0.8,1.8,2471.188,13.29,0.05,222.6
2022-12-03T07:34:03,42.805,6.029,-0.052,-0.008,-0.052,104.0,104.0,103.0,13.3,1505.2,331.3,-0.7,1.8,2471.134,13.29,0.052,261.3
2022-12-03T07:37:03,42.805,6.029,-0.046,-0.009,-0.006,105.0,104.0,103.0,13.4,1505.2,326.9,-0.8,1.8,2471.184,13.29,0.046,258.9
2022-12-03T07:40:03,42.805,6.029,-0.043,-0.012,-0.053,103.0,103.0,103.0,13.4,1505.2,336.1,-0.8,1.8,2471.152,13.29,0.044,254.4
2022-12-03T07:43:03,42.805,6.029,-0.054,-0.03,-0.058,104.0,104.0,101.0,13.4,1505.2,331.8,-0.8,1.8,2471.158,13.29,0.061,240.9
2022-12-03T07:46:03,42.805,6.029,-0.046,-0.018,-0.015,105.0,104.0,103.0,13.4,1505.2,331.4,-0.8,1.8,2471.174,13.29,0.049,248.6
2022-12-03T07:49:03,42.805,6.029,-0.045,-0.003,-0.018,105.0,103.0,102.0,13.4,1505.2,333.7,-0.8,1.8,2471.16,13.29,0.045,266.2
2022-12-03T07:52:03,42.805,6.029,-0.029,-0.051,-0.042,105.0,104.0,102.0,13.4,1505.2,323.1,-0.8,1.8,2471.181,13.29,0.058,209.6
2022-12-03T07:55:03,42.805,6.029,-0.026,-0.015,-0.041,105.0,103.0,103.0,13.4,1505.2,331.5,-0.8,1.8,2471.144,13.29,0.03,240.0
2022-12-03T07:58:03,42.805,6.029,-0.101,-0.011,-0.063,104.0,103.0,103.0,13.4,1505.2,328.3,-0.8,1.8,2471.175,13.29,0.101,263.8
2022-12-03T08:04:03,42.805,6.029,-0.052,-0.008,-0.038,104.0,103.0,103.0,13.4,1505.2,328.9,-0.7,1.8,2471.189,13.28,0.052,261.3
2022-12-03T08:07:03,42.805,6.029,-0.063,-0.015,-0.053,104.0,103.0,102.0,13.4,1505.2,326.5,-0.7,1.8,2471.192,13.28,0.064,256.6
2022-12-03T08:10:03,42.805,6.029,-0.018,-0.026,-0.072,105.0,104.0,102.0,13.4,1505.2,316.8,-0.8,1.8,2471.19,13.28,0.031,214.7
2022-12-03T08:13:03,42.805,6.029,-0.034,-0.062,-0.032,104.0,103.0,103.0,13.4,1505.2,318.6,-0.7,1.8,2471.204,13.28,0.07,208.7
2022-12-03T08:16:03,42.805,6.029,-0.056,-0.045,-0.054,106.0,103.0,102.0,13.4,1505.2,316.8,-0.7,1.8,2471.178,13.28,0.071,231.2
2022-12-03T08:19:03,42.805,6.029,-0.053,-0.027,-0.05,105.0,103.0,101.0,13.4,1505.2,327.9,-0.8,1.8,2471.181,13.28,0.059,243.0
2022-12-03T08:22:03,42.805,6.029,-0.058,-0.025,-0.059,105.0,105.0,101.0,13.4,1505.2,323.5,-0.7,1.8,2471.155,13.28,0.063,246.7
2022-12-03T08:25:03,42.805,6.029,-0.056,-0.019,-0.028,104.0,103.0,103.0,13.4,1505.2,325.6,-0.8,1.8,2471.188,13.29,0.059,251.3
2022-12-03T08:28:03,42.805,6.029,-0.041,-0.017,-0.026,105.0,104.0,102.0,13.3,1505.2,330.2,-0.8,1.8,2471.161,13.29,0.044,247.5
2022-12-03T08:31:03,42.805,6.029,-0.066,-0.043,-0.044,104.0,104.0,103.0,13.4,1505.2,317.3,-0.8,1.9,2471.168,13.29,0.078,236.9
2022-12-03T08:34:03,42.805,6.029,-0.048,-0.02,-0.016,104.0,104.0,103.0,13.4,1505.2,333.4,-0.7,1.8,2471.142,13.29,0.052,247.4
2022-12-03T08:37:03,42.805,6.029,-0.066,-0.014,-0.014,105.0,102.0,102.0,13.4,1505.2,329.0,-0.8,1.8,2471.176,13.29,0.067,258.0
2022-12-03T08:40:03,42.805,6.029,-0.059,-0.017,-0.03,105.0,105.0,102.0,13.3,1505.2,324.8,-0.8,1.9,2471.168,13.29,0.061,253.9
2022-12-03T08:43:03,42.805,6.029,-0.063,-0.007,-0.068,104.0,104.0,102.0,13.4,1505.2,325.8,-0.7,1.8,2471.165,13.29,0.063,263.7
2022-12-03T08:46:03,42.805,6.029,-0.033,-0.02,-0.019,103.0,104.0,103.0,13.4,1505.2,329.8,-0.8,1.9,2471.142,13.29,0.038,238.8
2022-12-03T08:49:03,42.805,6.029,-0.055,-0.012,-0.03,104.0,103.0,102.0,13.4,1505.2,328.0,-0.7,1.8,2471.187,13.29,0.056,257.7
2022-12-03T08:52:03,42.805,6.029,-0.044,-0.012,-0.016,104.0,103.0,103.0,13.4,1505.2,335.4,-0.7,1.8,2471.124,13.29,0.045,254.7
2022-12-03T08:55:03,42.805,6.029,-0.055,-0.039,-0.034,105.0,103.0,102.0,13.4,1505.2,325.3,-0.7,1.8,2471.142,13.29,0.067,234.7
2022-12-03T08:58:03,42.805,6.029,-0.038,-0.024,-0.039,103.0,104.0,102.0,13.3,1505.2,324.4,-0.8,1.8,2471.154,13.29,0.044,237.7
2022-12-03T09:04:03,42.805,6.029,-0.038,-0.033,-0.045,105.0,103.0,103.0,13.3,1505.2,327.6,-0.8,1.8,2471.158,13.28,0.05,229.0
2022-12-03T09:07:03,42.805,6.029,-0.057,-0.011,-0.047,103.0,103.0,103.0,13.3,1505.2,319.0,-0.8,1.8,2471.186,13.28,0.058,259.1
2022-12-03T09:10:03,42.805,6.029,-0.058,0.006,-0.035,104.0,104.0,102.0,13.4,1505.2,335.5,-0.8,1.8,2471.153,13.28,0.058,275.9
2022-12-03T09:13:03,42.805,6.029,-0.039,-0.029,-0.047,103.0,104.0,102.0,13.3,1505.2,328.6,-0.8,1.8,2471.174,13.28,0.048,233.4
2022-12-03T09:16:03,42.805,6.029,-0.024,-0.006,-0.038,104.0,104.0,103.0,13.4,1505.2,330.6,-0.8,1.8,2471.156,13.28,0.024,256.0
2022-12-03T09:19:03,42.805,6.029,-0.042,-0.028,-0.049,104.0,103.0,103.0,13.3,1505.2,325.5,-0.8,1.8,2471.186,13.28,0.05,236.3
2022-12-03T09:22:03,42.805,6.029,-0.039,-0.017,-0.049,103.0,103.0,103.0,13.4,1505.2,325.2,-0.7,1.8,2471.152,13.29,0.042,246.5
2022-12-03T09:25:03,42.805,6.029,-0.022,-0.015,-0.05,104.0,104.0,103.0,13.3,1505.2,321.4,-0.8,1.8,2471.171,13.29,0.026,235.7
2022-12-03T09:28:03,42.805,6.029,-0.041,-0.025,-0.043,105.0,103.0,103.0,13.4,1505.2,326.0,-0.8,1.8,2471.155,13.29,0.048,238.6
2022-12-03T09:31:03,42.805,6.029,-0.052,-0.026,-0.053,104.0,105.0,102.0,13.4,1505.2,321.0,-0.8,1.8,2471.167,13.29,0.058,243.4
2022-12-03T09:34:03,42.805,6.029,-0.041,-0.019,-0.015,104.0,103.0,102.0,13.3,1505.2,323.2,-0.8,1.8,2471.158,13.29,0.045,245.1
2022-12-03T09:37:03,42.805,6.029,-0.044,-0.023,-0.053,104.0,104.0,103.0,13.4,1505.2,319.1,-0.8,1.8,2471.135,13.29,0.049,242.4
2022-12-03T09:40:03,42.805,6.029,-0.059,-0.012,-0.032,105.0,104.0,102.0,13.4,1505.2,316.9,-0.8,1.8,2471.151,13.29,0.06,258.5
2022-12-03T09:43:03,42.805,6.029,-0.051,-0.02,-0.029,104.0,105.0,102.0,13.4,1505.2,329.2,-0.8,1.8,2471.122,13.29,0.054,248.6
2022-12-03T09:46:03,42.805,6.029,-0.049,0.008,-0.006,105.0,103.0,102.0,13.4,1505.2,330.4,-0.7,1.9,2471.104,13.29,0.049,279.3
2022-12-03T09:49:03,42.805,6.029,-0.045,-0.029,-0.037,105.0,103.0,103.0,13.4,1505.2,329.5,-0.8,1.8,2471.091,13.29,0.053,237.2